Location: L�Ave Maria
(50.7161°N, 1.5911°E)
Time: 23:48:52
(UTC+00:00)

ATLAS 5 CENTAUR R/B - Pass Details

Date: 10 July 2020
Orbit: 273 x 14305 km, 60.7° (Epoch: 14 August)

Event Time Altitude Azimuth Distance (km) Brightness Sun altitude
Rises 23:29:07 0° 315° (NW) 1,928 5.5 -16.9°
Reaches altitude 10° 23:30:58 10° 342° (NNW) 1,235 4.9 -16.9°
Maximum altitude 23:32:40 17° 29° (NNE) 1,121 4.1 -17.0°
Drops below altitude 10° 23:35:15 10° 74° (ENE) 1,990 4.8 -17.0°
Sets 23:39:42 0° 93° (E) 4,066 6.2 -17.1°
